Vorticity
17 17 17 16 15 13 12 11 12 12 12 11 11 11 11 12 11 10 9 7 8 9 12 14 14 14 12 10 9 9 9 9 10 10 11 12 13 13 13 13 11 10 10 12 15 16 15 13 9 8 10 13 15 14 12 11 11 13 14 16 19 24 29 32 31 28 24 22 20
16 18 18 17 14 11 7 5 3 2 1 -0 1 4 8 12 14 14 14 13 13 15 17 18 18 17 16 15 14 13 13 13 14 15 15 15 16 15 15 14 13 12 13 14 17 19 19 18 14 12 11 12 14 15 13 12 12 13 15 17 21 25 28 31 31 29 26 23 19
18 20 20 18 14 10 7 4 1 -1 -4 -7 -7 -7 -5 -3 1 6 11 15 17 18 18 16 13 11 10 9 8 8 8 9 9 10 11 12 12 13 13 14 15 15 16 17 18 20 20 19 17 15 13 13 15 16 15 14 14 15 16 18 20 23 25 26 25 24 21 18 14
14 14 15 17 16 15 13 12 11 10 8 5 1 -2 -5 -8 -11 -11 -9 -6 -4 -2 -2 -2 -3 -4 -4 -4 -2 -0 2 4 6 9 11 13 14 15 16 17 17 17 17 18 19 20 21 20 19 17 15 15 16 17 17 16 17 18 19 18 19 19 18 18 17 16 15 13 11
9 10 12 13 15 17 18 20 21 23 24 23 19 14 8 4 4 4 4 2 -0 -3 -5 -8 -9 -8 -6 -3 1 4 7 9 11 13 14 16 18 19 20 20 18 18 17 17 18 20 21 21 20 19 17 17 17 18 18 18 20 21 20 19 17 14 12 11 11 11 11 11 11
6 5 6 10 13 17 20 23 25 29 32 34 32 26 19 13 14 15 15 13 10 8 5 3 2 3 4 6 9 11 14 16 16 17 18 19 20 21 20 19 18 17 16 16 17 19 20 21 21 20 19 18 18 19 19 20 22 23 21 18 14 10 8 7 8 9 11 12 11
-1 1 5 9 9 10 10 9 9 11 15 21 26 29 31 31 32 32 30 27 21 16 12 10 10 11 12 14 16 18 19 19 20 20 20 21 21 20 19 18 17 16 16 17 18 19 20 21 21 20 19 18 18 19 20 22 24 24 21 16 11 8 6 5 7 9 10 11 11
-5 -1 4 4 -0 -5 -8 -11 -11 -10 -8 -6 -2 4 10 16 21 25 28 29 26 20 15 10 11 13 15 19 20 21 21 20 19 19 19 19 18 18 17 17 17 17 17 18 19 20 20 21 20 19 19 18 18 19 20 23 25 24 20 14 9 6 5 5 7 8 9 9 9
1 1 3 4 -1 -6 -11 -15 -15 -14 -14 -14 -14 -14 -12 -10 -7 -3 2 8 12 12 9 7 9 13 17 21 21 20 18 17 16 16 16 16 16 16 16 16 16 17 18 18 19 20 20 20 19 19 18 18 18 19 21 23 24 23 19 13 9 6 6 6 7 8 8 9 8
19 14 14 15 12 8 4 -0 -3 -5 -7 -8 -11 -14 -16 -16 -14 -10 -5 2 8 11 10 8 10 13 16 18 17 15 14 13 14 14 15 14 14 14 14 14 14 15 16 17 18 18 19 18 18 18 18 18 19 20 21 23 23 20 16 11 8 7 7 8 9 9 9 9 8
21 18 17 19 21 24 26 27 24 20 14 9 3 -2 -5 -5 -3 -1 2 5 10 12 13 10 10 11 13 13 12 11 10 11 12 13 13 13 12 11 11 11 11 12 13 15 17 18 18 18 18 18 19 20 20 20 21 22 21 18 14 11 8 8 9 10 10 10 10 10 8
6 3 -1 -2 3 11 21 33 40 41 37 31 24 17 12 10 10 9 8 7 10 13 13 10 8 8 8 9 9 9 9 10 11 11 11 11 9 9 8 8 9 10 11 14 17 19 20 19 19 19 20 21 21 21 20 19 18 16 13 10 8 8 9 11 11 11 11 10 8
10 11 4 -7 -8 -4 5 18 30 36 38 37 32 27 22 18 16 14 12 12 14 15 12 7 3 2 3 5 6 7 8 8 9 9 9 8 8 7 8 8 9 9 10 12 16 18 20 21 21 21 21 21 21 21 19 17 15 13 11 9 8 8 9 11 12 12 11 9 6
13 29 31 16 3 -3 -1 8 15 20 22 23 21 19 17 17 16 15 15 15 15 12 8 2 -1 -1 1 3 5 5 5 5 5 7 8 8 8 9 9 9 9 10 11 12 14 17 19 21 21 22 22 21 21 19 17 15 13 11 10 8 8 9 10 11 11 11 9 7 5
4 24 37 32 15 4 -1 1 2 1 1 0 2 7 12 18 18 15 12 11 9 6 3 -1 0 2 5 7 6 4 2 1 4 7 9 11 10 10 10 10 11 12 12 13 14 16 18 20 21 21 21 21 20 18 16 14 12 10 9 8 8 9 9 10 10 9 7 6 5
7 17 26 26 14 4 -3 -6 -7 -9 -10 -9 -2 7 17 22 19 14 10 7 6 5 4 4 7 11 14 14 9 3 1 2 6 9 11 12 11 10 10 11 12 14 15 15 15 15 16 18 20 20 21 20 19 18 16 13 11 10 9 8 8 9 9 9 9 7 6 5 4
18 17 15 11 4 1 0 3 5 6 7 9 12 14 16 16 14 12 10 9 10 11 13 16 19 20 19 14 6 2 2 6 9 11 12 12 11 10 10 11 13 15 17 17 15 15 15 17 18 19 20 20 19 17 16 13 11 9 8 8 8 9 9 8 8 7 6 5 4
24 16 7 -0 3 10 19 27 28 27 25 22 16 10 6 6 8 9 10 12 15 17 18 18 17 13 8 3 1 3 6 10 11 12 12 11 9 9 9 11 14 16 18 18 16 15 15 15 17 18 19 19 18 17 15 13 11 10 9 8 8 8 8 8 7 6 6 5 4
20 12 2 -4 6 17 27 32 30 26 20 13 5 0 -1 -0 2 5 7 9 9 8 7 5 3 0 -1 0 4 8 11 12 12 12 11 9 8 8 10 12 15 17 18 17 16 15 15 15 16 17 18 18 18 17 16 14 12 11 9 9 9 8 8 8 7 6 6 5 5
9 5 -0 -4 6 16 22 22 17 11 5 -0 -3 -3 -3 -1 1 2 2 -1 -4 -4 -2 1 3 4 7 10 13 14 14 13 12 11 9 8 8 10 12 14 15 16 17 17 16 15 15 15 16 16 17 17 17 17 16 15 13 12 10 9 9 8 8 8 7 7 6 6 5
1 -0 -1 0 7 12 15 11 5 2 -1 -1 -1 -1 0 2 4 2 -3 -10 -10 -5 3 9 12 14 16 17 18 16 14 11 10 9 8 8 10 12 14 15 15 16 16 16 16 16 16 16 16 16 16 17 17 16 16 15 13 12 11 10 9 8 8 7 7 7 6 6 6
2 1 2 4 6 8 8 7 4 3 3 3 3 3 5 8 9 4 -5 -13 -9 1 10 17 18 18 19 19 17 14 11 10 9 9 9 10 12 14 15 15 15 15 15 16 17 17 17 17 17 17 17 16 16 16 15 15 13 12 11 10 9 8 8 7 7 7 7 7 7
6 5 5 5 5 6 6 6 5 4 4 4 5 8 12 17 12 2 -8 -13 -2 9 17 21 21 20 18 16 13 11 9 9 9 9 10 12 14 15 16 15 14 13 14 15 16 17 18 19 19 19 18 18 17 16 15 14 13 12 11 10 10 9 8 8 8 8 8 7 7
8 7 6 4 4 4 5 5 4 3 3 5 9 14 17 16 4 -6 -10 -4 9 18 23 23 21 18 15 12 9 8 8 8 9 9 11 14 16 16 15 14 13 12 13 14 15 16 17 18 19 19 19 19 18 17 16 15 14 13 12 11 11 10 9 9 9 8 8 8 7
8 6 5 4 3 3 3 4 3 3 5 7 10 10 7 -1 -8 -7 -0 12 21 25 25 23 18 14 11 8 6 6 7 9 9 11 13 15 17 17 15 13 13 12 12 13 13 14 15 17 18 18 19 18 18 17 16 15 14 13 13 12 11 11 10 9 9 8 8 8 7
11 7 5 4 3 3 3 3 4 4 5 5 4 1 -2 -4 1 10 19 27 28 27 23 18 13 10 7 5 5 6 8 9 10 12 13 16 17 16 15 14 13 12 12 12 12 13 13 14 15 16 17 17 16 16 15 14 13 13 12 11 11 10 9 9 8 8 7 7 7
16 11 7 5 4 5 5 6 6 6 6 5 4 4 7 13 21 26 30 30 26 21 16 12 8 6 4 4 5 7 9 11 12 13 14 15 16 16 15 14 13 12 11 10 10 11 12 13 13 14 14 14 15 14 14 13 13 12 11 10 9 9 8 7 7 7 6 6 6
23 17 12 9 8 8 8 9 11 13 14 14 15 18 21 26 29 30 27 23 17 13 9 7 5 4 4 5 7 10 12 14 15 16 15 15 15 15 15 14 13 11 9 7 8 8 9 10 10 11 12 12 13 13 13 13 13 12 11 10 9 9 8 7 7 6 6 6 6
26 22 18 14 13 13 14 16 19 20 22 23 24 25 26 27 26 23 18 11 8 6 5 4 4 5 6 9 11 13 15 17 18 18 16 15 15 15 15 14 12 9 7 5 5 5 6 7 7 8 9 10 11 11 12 12 12 12 12 12 11 10 9 9 8 8 7 7 7
25 24 23 23 24 24 25 24 24 25 25 24 24 23 23 23 20 15 9 4 2 2 3 4 5 8 10 12 14 16 18 20 20 19 18 16 16 15 14 12 9 7 5 4 4 5 5 6 6 7 8 9 9 10 11 11 12 12 12 12 12 12 11 10 10 9 9 9 9
30 31 32 31 29 27 24 22 20 19 18 18 18 19 19 19 16 11 6 1 -0 0 2 4 8 11 13 15 16 18 20 21 21 20 19 18 16 13 11 8 6 5 4 4 5 6 7 8 9 9 10 10 10 11 11 11 11 11 11 12 12 12 12 11 11 10 10 10 10
29 28 26 23 19 16 13 12 10 10 11 13 16 17 18 17 14 10 5 1 -1 -0 2 6 10 13 15 16 17 18 18 18 18 18 17 16 13 11 8 6 5 4 5 6 7 8 10 11 12 12 13 13 13 12 12 12 11 11 11 11 11 11 11 11 11 11 10 10 10
22 20 18 15 13 11 10 9 9 11 13 15 17 17 17 16 13 9 5 1 -0 1 4 9 12 14 15 16 16 16 15 14 13 12 12 11 10 8 7 6 6 6 7 8 9 10 11 11 12 13 13 13 13 13 13 13 12 12 11 11 11 11 11 11 10 10 10 10 10
16 16 15 15 15 14 14 14 14 15 16 17 17 16 15 13 10 8 5 2 2 4 7 11 13 14 14 13 13 12 11 10 9 8 8 8 7 7 7 7 7 8 8 9 10 9 9 9 9 10 10 10 11 11 11 12 12 12 12 12 12 11 11 11 10 10 10 10 10
11 12 13 14 15 15 16 16 16 16 16 16 15 13 12 10 8 7 5 4 5 7 10 12 12 12 11 11 10 10 9 8 7 6 5 5 6 6 6 6 6 7 8 8 9 8 8 7 7 7 7 7 8 8 8 9 9 10 11 11 11 11 11 10 10 10 10 10 10
10 11 12 13 14 14 14 14 13 13 12 12 11 10 9 9 8 8 7 7 8 10 11 11 11 10 9 9 8 8 7 6 5 5 4 4 4 4 5 5 6 7 8 9 10 10 10 10 9 8 7 7 7 7 8 8 8 8 9 9 9 10 10 10 10 10 9 9 9
10 10 11 11 11 11 10 10 9 9 9 9 9 9 10 10 10 10 10 10 11 11 11 11 10 10 9 9 8 7 6 6 5 5 4 4 4 5 6 7 8 9 10 11 12 12 13 13 12 11 10 9 9 9 9 9 9 9 9 9 9 9 9 9 9 9 9 9 9
7 7 7 7 7 7 7 7 7 7 8 8 9 10 11 11 11 12 12 11 11 11 11 11 12 12 12 12 12 11 10 8 7 7 7 7 8 9 10 11 11 11 11 11 11 11 12 12 12 12 11 10 9 9 10 10 10 10 10 9 9 9 8 8 8 8 8 8 8
5 5 5 4 4 4 5 6 6 7 8 9 10 11 11 11 11 11 10 10 10 11 12 14 15 16 17 18 17 17 16 14 12 12 11 12 12 12 12 12 11 10 9 9 9 9 9 10 11 11 11 10 9 9 10 10 10 10 10 10 9 9 9 8 8 8 8 7 7
4 4 4 3 4 4 5 6 7 8 9 9 10 10 9 8 7 7 7 7 9 11 14 16 18 20 21 21 21 20 19 18 16 15 14 13 12 11 10 9 8 8 7 7 7 7 8 9 10 10 11 10 10 10 10 11 11 11 11 11 10 10 9 9 9 8 8 8 7
5 5 6 6 6 6 6 7 7 8 8 8 8 7 6 5 4 3 4 6 9 13 16 18 19 20 20 20 20 19 19 17 15 14 12 10 9 8 7 6 6 6 6 6 6 5 6 6 8 9 9 9 9 10 11 11 12 12 12 12 11 11 11 10 10 10 10 9 9
Height
5584 5584 5585 5586 5586 5587 5587 5587 5587 5587 5587 5587 5587 5586 5586 5586 5587 5587 5587 5587 5588 5588 5589 5590 5590 5590 5590 5590 5590 5590 5590 5590 5590 5590 5590 5590 5590 5590 5591 5591 5591 5591 5591 5591 5590 5590 5590 5591 5591 5592 5592 5592 5592 5592 5592 5593 5593 5593 5594 5594 5595 5596 5597 5598 5599 5601 5602 5604 5606
5578 5579 5580 5581 5582 5582 5582 5582 5582 5582 5582 5582 5582 5582 5582 5582 5582 5582 5582 5583 5584 5584 5585 5585 5585 5585 5585 5585 5585 5585 5585 5585 5585 5585 5585 5585 5585 5585 5586 5586 5586 5586 5586 5585 5585 5585 5585 5585 5586 5587 5587 5587 5588 5588 5588 5588 5589 5589 5590 5590 5591 5592 5593 5594 5595 5597 5598 5600 5602
5574 5575 5576 5577 5577 5577 5577 5577 5577 5577 5577 5577 5577 5577 5577 5578 5578 5578 5579 5579 5580 5580 5581 5581 5581 5581 5581 5580 5580 5581 5581 5580 5580 5580 5580 5580 5580 5581 5581 5581 5581 5581 5581 5580 5580 5580 5580 5580 5581 5581 5582 5582 5583 5583 5583 5584 5584 5585 5586 5586 5587 5588 5589 5590 5592 5593 5595 5596 5598
5571 5572 5572 5572 5572 5572 5572 5572 5572 5572 5572 5573 5573 5573 5573 5574 5574 5575 5575 5575 5576 5576 5576 5576 5576 5576 5576 5576 5576 5576 5576 5576 5575 5575 5575 5575 5575 5576 5576 5576 5576 5576 5576 5576 5575 5575 5575 5575 5576 5576 5577 5577 5578 5578 5579 5579 5580 5581 5582 5582 5584 5585 5586 5587 5588 5590 5591 5592 5594
5567 5568 5568 5568 5568 5568 5567 5567 5567 5567 5567 5568 5569 5569 5569 5570 5571 5571 5571 5572 5572 5572 5572 5572 5572 5572 5572 5572 5572 5571 5571 5571 5571 5571 5571 5571 5571 5571 5571 5571 5571 5571 5571 5571 5571 5571 5571 5571 5571 5572 5572 5572 5573 5574 5574 5575 5576 5577 5577 5579 5580 5581 5582 5583 5585 5586 5588 5589 5591
5563 5564 5564 5563 5563 5562 5562 5563 5563 5563 5563 5563 5564 5565 5565 5566 5566 5567 5567 5567 5568 5568 5568 5568 5568 5568 5568 5568 5567 5567 5567 5567 5567 5567 5567 5567 5567 5567 5566 5566 5566 5566 5566 5566 5566 5566 5566 5566 5567 5567 5567 5568 5568 5569 5570 5571 5572 5572 5574 5575 5576 5577 5579 5580 5581 5583 5584 5586 5587
5559 5559 5558 5558 5558 5558 5558 5558 5558 5558 5559 5559 5560 5561 5561 5562 5562 5562 5562 5563 5563 5564 5565 5565 5565 5564 5564 5564 5564 5563 5563 5563 5563 5563 5563 5562 5562 5562 5562 5562 5562 5562 5562 5562 5562 5562 5562 5562 5562 5563 5563 5564 5564 5565 5566 5567 5567 5568 5570 5571 5572 5574 5575 5577 5578 5580 5581 5582 5584
5555 5554 5553 5552 5553 5553 5553 5554 5554 5554 5554 5555 5555 5556 5557 5557 5558 5558 5558 5559 5559 5560 5560 5561 5560 5560 5560 5560 5560 5559 5559 5559 5559 5559 5559 5558 5558 5558 5558 5558 5557 5557 5557 5557 5557 5557 5558 5558 5558 5559 5559 5560 5560 5561 5562 5562 5563 5565 5566 5567 5569 5570 5572 5573 5575 5576 5578 5579 5580
5548 5548 5547 5547 5547 5548 5548 5548 5549 5549 5549 5550 5550 5551 5552 5552 5553 5553 5554 5554 5555 5556 5556 5556 5556 5556 5556 5556 5556 5556 5555 5555 5555 5555 5555 5555 5554 5554 5554 5554 5553 5553 5553 5553 5553 5553 5554 5554 5554 5555 5555 5556 5556 5557 5557 5558 5560 5561 5562 5564 5565 5567 5568 5570 5571 5573 5574 5576 5577
5542 5542 5542 5543 5544 5544 5544 5544 5544 5544 5544 5545 5546 5547 5547 5548 5548 5549 5549 5550 5551 5551 5552 5552 5552 5552 5552 5552 5552 5552 5552 5552 5551 5551 5551 5551 5551 5550 5550 5550 5550 5550 5549 5549 5549 5550 5550 5550 5551 5551 5551 5552 5552 5552 5553 5555 5556 5557 5559 5560 5562 5563 5565 5566 5567 5569 5571 5572 5573
5537 5537 5538 5539 5540 5541 5542 5542 5542 5541 5541 5541 5542 5542 5543 5544 5544 5545 5545 5546 5547 5547 5548 5548 5548 5548 5548 5548 5548 5548 5548 5548 5547 5547 5547 5547 5547 5547 5546 5546 5546 5546 5546 5546 5546 5546 5546 5547 5547 5547 5547 5548 5548 5549 5550 5551 5552 5553 5555 5556 5558 5559 5561 5562 5564 5565 5567 5568 5570
5532 5533 5533 5534 5535 5537 5537 5538 5538 5538 5538 5538 5539 5540 5540 5541 5541 5541 5542 5542 5543 5544 5544 5545 5545 5545 5545 5545 5544 5544 5544 5544 5544 5543 5543 5543 5543 5543 5542 5542 5542 5542 5542 5542 5542 5542 5542 5543 5543 5543 5544 5544 5544 5545 5546 5547 5548 5550 5551 5552 5554 5556 5557 5559 5560 5562 5563 5564 5566
5528 5529 5530 5529 5530 5532 5533 5534 5534 5533 5534 5534 5535 5536 5537 5537 5538 5538 5539 5539 5540 5541 5541 5542 5542 5541 5541 5541 5541 5541 5540 5540 5540 5540 5539 5539 5539 5539 5539 5538 5538 5538 5538 5538 5538 5539 5539 5539 5539 5540 5540 5541 5541 5542 5542 5544 5545 5546 5547 5549 5550 5552 5553 5555 5556 5558 5559 5561 5562
5522 5525 5526 5525 5526 5527 5529 5529 5529 5529 5530 5530 5532 5532 5533 5534 5534 5535 5536 5536 5537 5537 5538 5538 5538 5537 5537 5537 5537 5537 5537 5536 5536 5536 5536 5536 5536 5535 5535 5535 5534 5534 5534 5534 5535 5535 5535 5535 5536 5536 5537 5537 5538 5538 5539 5540 5541 5542 5544 5545 5547 5548 5550 5551 5552 5554 5556 5557 5558
5516 5519 5521 5521 5522 5523 5525 5525 5525 5526 5526 5527 5528 5529 5530 5530 5531 5532 5532 5532 5533 5534 5534 5534 5534 5534 5533 5533 5533 5533 5533 5532 5532 5532 5532 5532 5532 5532 5531 5531 5531 5531 5531 5531 5531 5531 5532 5532 5532 5533 5533 5534 5535 5535 5536 5537 5538 5539 5540 5542 5543 5545 5546 5547 5549 5550 5552 5553 5555
5511 5513 5516 5517 5518 5519 5520 5520 5521 5522 5523 5524 5525 5526 5526 5527 5527 5528 5529 5529 5530 5530 5530 5530 5530 5530 5530 5530 5529 5529 5529 5528 5528 5528 5528 5528 5528 5528 5528 5527 5527 5527 5527 5527 5528 5528 5529 5529 5529 5530 5530 5531 5532 5532 5533 5534 5535 5536 5537 5538 5540 5541 5542 5544 5545 5547 5548 5550 5551
5507 5509 5511 5514 5515 5516 5517 5517 5517 5518 5519 5520 5522 5522 5523 5523 5524 5525 5525 5526 5527 5527 5527 5527 5527 5527 5526 5526 5526 5525 5525 5525 5525 5525 5525 5525 5525 5524 5524 5524 5524 5524 5524 5524 5525 5525 5526 5526 5526 5527 5527 5528 5529 5530 5531 5531 5532 5533 5534 5535 5536 5538 5539 5540 5542 5543 5545 5546 5547
5502 5504 5507 5511 5513 5513 5513 5514 5514 5515 5516 5517 5518 5519 5520 5520 5521 5521 5522 5522 5523 5523 5523 5523 5523 5523 5522 5522 5522 5522 5522 5521 5521 5521 5521 5521 5521 5521 5521 5521 5521 5520 5521 5521 5522 5522 5522 5523 5523 5524 5524 5525 5526 5527 5527 5528 5529 5530 5531 5532 5533 5534 5536 5537 5538 5540 5541 5542 5543
5499 5500 5502 5506 5508 5509 5510 5510 5510 5511 5512 5513 5514 5515 5516 5517 5517 5518 5518 5519 5520 5520 5520 5520 5519 5519 5519 5518 5518 5518 5518 5518 5517 5518 5518 5518 5518 5518 5518 5517 5517 5517 5517 5518 5518 5519 5519 5520 5520 5521 5522 5522 5523 5524 5525 5525 5526 5527 5528 5529 5530 5531 5532 5533 5535 5536 5537 5538 5540
5495 5497 5498 5500 5502 5504 5506 5506 5506 5507 5508 5509 5510 5512 5512 5513 5514 5514 5515 5516 5516 5516 5516 5515 5515 5515 5515 5515 5515 5514 5514 5514 5514 5514 5514 5515 5515 5515 5515 5514 5514 5514 5515 5515 5515 5516 5516 5517 5517 5518 5518 5519 5520 5521 5521 5522 5523 5523 5524 5525 5526 5527 5529 5530 5531 5532 5534 5535 5536
5491 5492 5494 5496 5497 5499 5501 5502 5502 5503 5504 5505 5507 5507 5508 5509 5510 5511 5511 5512 5512 5512 5512 5511 5511 5511 5511 5511 5511 5511 5511 5511 5511 5511 5511 5512 5512 5512 5512 5512 5512 5512 5512 5512 5512 5513 5513 5514 5514 5515 5515 5516 5517 5517 5518 5519 5520 5520 5521 5522 5523 5524 5525 5527 5527 5529 5530 5531 5532
5486 5488 5490 5492 5492 5494 5495 5497 5498 5499 5500 5501 5502 5503 5504 5505 5506 5507 5508 5509 5508 5508 5507 5507 5507 5507 5507 5507 5507 5507 5507 5508 5508 5508 5508 5508 5508 5508 5509 5509 5509 5509 5509 5509 5510 5510 5510 5511 5511 5512 5512 5512 5513 5514 5515 5515 5516 5517 5518 5519 5520 5521 5522 5523 5524 5525 5526 5527 5528
5482 5484 5486 5488 5489 5490 5491 5493 5494 5496 5497 5498 5499 5500 5501 5502 5503 5504 5505 5505 5504 5504 5503 5503 5503 5503 5504 5504 5504 5504 5504 5504 5504 5505 5505 5505 5505 5505 5506 5506 5506 5507 5507 5507 5507 5507 5507 5508 5508 5508 5509 5509 5510 5511 5511 5512 5513 5514 5515 5516 5517 5517 5518 5519 5520 5522 5522 5524 5525
5477 5480 5482 5484 5486 5487 5488 5489 5491 5492 5494 5495 5496 5497 5498 5499 5500 5501 5501 5501 5500 5500 5500 5500 5500 5500 5500 5500 5501 5501 5501 5501 5501 5502 5502 5502 5502 5502 5503 5503 5504 5504 5504 5504 5504 5504 5505 5505 5505 5505 5506 5506 5507 5507 5508 5509 5510 5511 5511 5512 5513 5514 5515 5516 5517 5518 5519 5520 5521
5474 5476 5478 5480 5482 5484 5485 5487 5488 5490 5491 5492 5493 5495 5496 5497 5497 5497 5497 5497 5496 5496 5497 5497 5497 5497 5497 5497 5497 5497 5498 5498 5498 5499 5499 5499 5499 5499 5500 5501 5501 5501 5502 5502 5502 5502 5502 5502 5502 5502 5503 5503 5504 5504 5505 5506 5507 5507 5508 5509 5510 5511 5512 5512 5513 5514 5515 5517 5517
5471 5472 5474 5477 5478 5481 5482 5484 5486 5487 5489 5490 5490 5491 5492 5492 5492 5492 5492 5493 5493 5493 5493 5493 5494 5494 5494 5494 5494 5494 5495 5495 5495 5496 5496 5496 5496 5497 5497 5498 5498 5499 5499 5499 5499 5499 5499 5499 5500 5500 5500 5500 5501 5501 5502 5502 5503 5504 5505 5506 5507 5507 5508 5509 5510 5511 5512 5513 5514
5467 5469 5471 5473 5475 5477 5479 5481 5483 5484 5485 5486 5487 5487 5487 5487 5487 5488 5489 5489 5490 5490 5490 5491 5491 5491 5491 5491 5491 5492 5492 5492 5492 5492 5493 5493 5493 5494 5494 5495 5496 5496 5497 5497 5497 5497 5497 5497 5497 5497 5497 5497 5498 5498 5499 5500 5500 5501 5502 5502 5503 5504 5505 5506 5507 5508 5509 5509 5510
5465 5467 5469 5471 5472 5474 5476 5477 5479 5480 5481 5482 5482 5482 5482 5483 5484 5485 5485 5486 5487 5487 5488 5488 5488 5488 5488 5488 5488 5488 5488 5489 5489 5489 5490 5490 5491 5491 5492 5492 5493 5493 5494 5494 5494 5494 5494 5494 5494 5495 5495 5495 5495 5496 5496 5497 5497 5498 5498 5499 5500 5501 5502 5503 5504 5505 5505 5506 5507
5463 5465 5467 5468 5470 5471 5472 5473 5475 5476 5477 5477 5478 5479 5479 5480 5481 5482 5482 5483 5484 5485 5485 5485 5485 5485 5485 5485 5485 5485 5485 5486 5486 5487 5487 5487 5488 5488 5489 5490 5490 5491 5491 5492 5492 5492 5492 5492 5492 5492 5492 5492 5493 5493 5493 5494 5494 5495 5496 5496 5497 5498 5498 5499 5500 5501 5502 5503 5503
5461 5462 5464 5466 5467 5468 5469 5470 5471 5472 5473 5474 5475 5476 5477 5477 5478 5479 5480 5481 5482 5482 5482 5482 5482 5482 5482 5482 5482 5482 5482 5483 5483 5484 5484 5485 5485 5486 5486 5487 5487 5488 5488 5489 5489 5489 5488 5488 5489 5489 5489 5489 5490 5490 5491 5491 5492 5492 5492 5493 5494 5495 5495 5496 5497 5497 5498 5499 5500
5459 5461 5462 5463 5464 5465 5466 5467 5468 5469 5470 5471 5472 5473 5473 5474 5475 5477 5477 5478 5479 5479 5479 5479 5479 5479 5479 5479 5479 5479 5480 5480 5480 5481 5482 5482 5482 5483 5483 5483 5484 5485 5486 5486 5486 5486 5486 5486 5486 5486 5486 5487 5487 5487 5487 5488 5489 5489 5490 5490 5491 5492 5492 5493 5493 5494 5495 5496 5496
5457 5458 5459 5461 5462 5462 5463 5464 5466 5467 5468 5469 5470 5470 5471 5472 5473 5474 5475 5475 5476 5476 5476 5476 5476 5477 5477 5477 5477 5477 5477 5477 5477 5478 5478 5479 5479 5480 5480 5481 5481 5482 5483 5483 5483 5483 5483 5483 5483 5483 5483 5483 5484 5484 5485 5485 5486 5486 5487 5487 5488 5488 5489 5490 5490 5491 5492 5492 5493
5455 5456 5457 5458 5459 5460 5461 5462 5463 5465 5466 5467 5467 5468 5469 5470 5471 5472 5472 5472 5472 5473 5473 5473 5474 5474 5474 5474 5474 5474 5474 5474 5475 5475 5475 5476 5476 5477 5477 5478 5478 5479 5480 5481 5481 5481 5481 5480 5480 5480 5480 5480 5481 5481 5482 5482 5482 5483 5484 5484 5485 5485 5486 5486 5487 5487 5488 5488 5489
5454 5455 5456 5457 5458 5459 5460 5461 5462 5463 5464 5465 5465 5466 5467 5467 5468 5469 5469 5469 5470 5470 5470 5471 5471 5471 5471 5471 5471 5471 5472 5472 5472 5472 5472 5472 5473 5474 5474 5475 5476 5476 5477 5477 5478 5478 5478 5478 5477 5477 5477 5477 5477 5477 5478 5479 5480 5480 5481 5482 5482 5482 5483 5483 5484 5484 5484 5485 5486
5453 5454 5455 5456 5457 5458 5458 5459 5460 5461 5462 5463 5463 5464 5465 5465 5466 5466 5466 5466 5467 5467 5467 5468 5468 5468 5468 5468 5468 5468 5468 5469 5469 5469 5469 5470 5470 5471 5471 5472 5472 5473 5473 5474 5475 5476 5476 5476 5475 5474 5474 5473 5474 5474 5475 5476 5477 5477 5478 5478 5479 5479 5480 5480 5480 5481 5481 5482 5482
5452 5452 5453 5454 5455 5456 5457 5457 5458 5459 5460 5461 5461 5462 5462 5462 5463 5463 5463 5464 5464 5465 5465 5465 5465 5465 5465 5465 5466 5466 5466 5466 5466 5466 5467 5467 5467 5468 5468 5469 5469 5470 5470 5471 5472 5472 5473 5473 5472 5472 5471 5471 5471 5471 5472 5472 5473 5474 5474 5475 5475 5476 5476 5477 5477 5477 5477 5478 5478
5451 5452 5452 5453 5454 5454 5455 5456 5457 5457 5458 5458 5459 5459 5459 5459 5460 5460 5460 5461 5462 5462 5462 5462 5462 5462 5462 5462 5462 5463 5463 5463 5463 5463 5464 5464 5464 5465 5466 5466 5467 5467 5467 5467 5468 5468 5469 5470 5470 5469 5468 5468 5468 5468 5469 5469 5470 5471 5471 5472 5472 5472 5472 5473 5473 5473 5474 5474 5474
5450 5451 5451 5452 5452 5453 5453 5454 5455 5455 5455 5456 5456 5456 5457 5457 5457 5457 5458 5458 5459 5459 5459 5459 5459 5459 5459 5459 5460 5460 5460 5460 5460 5461 5461 5461 5462 5462 5463 5463 5464 5464 5464 5464 5465 5465 5465 5466 5466 5466 5465 5465 5465 5465 5466 5466 5467 5467 5467 5468 5468 5468 5469 5469 5469 5470 5470 5470 5470
5449 5449 5450 5451 5451 5451 5452 5452 5452 5452 5452 5452 5453 5453 5454 5454 5455 5455 5456 5456 5456 5456 5456 5456 5456 5456 5456 5457 5457 5457 5457 5457 5457 5457 5458 5458 5459 5459 5460 5460 5461 5461 5461 5461 5461 5462 5462 5462 5462 5462 5462 5462 5462 5462 5462 5463 5463 5464 5464 5464 5465 5465 5465 5465 5465 5466 5466 5466 5466
5447 5448 5448 5448 5449 5449 5449 5449 5449 5449 5449 5450 5451 5451 5452 5452 5452 5453 5453 5453 5453 5453 5453 5453 5453 5453 5453 5453 5453 5454 5454 5454 5454 5455 5455 5456 5456 5456 5457 5457 5457 5458 5458 5458 5458 5458 5458 5459 5459 5459 5458 5458 5458 5459 5459 5460 5460 5460 5461 5461 5461 5461 5461 5461 5461 5462 5462 5462 5462
5446 5446 5446 5446 5446 5446 5446 5446 5447 5447 5447 5448 5448 5449 5449 5450 5450 5450 5450 5450 5450 5450 5450 5450 5450 5450 5450 5450 5451 5451 5451 5451 5452 5452 5452 5453 5453 5453 5454 5454 5454 5454 5454 5454 5455 5455 5455 5455 5455 5455 5455 5455 5455 5455 5456 5456 5457 5457 5457 5457 5457 5457 5457 5457 5457 5457 5457 5457 5458